• In Latvia
  • List of Countries
  • For 7 days
  • Water Temperature
  • Satellite Maps
  • Weather Map
  • Weather Widgets
  • user-avatar
    Login

    Hourly Weather Yulara

    Today, 25 November, Saturday

    Time Temperature Precipitation Wind Pressure Humidity
    00:00 +33°C° 0 mm 7 mps 715 mmHg 24%
    01:00 +32°C° 0 mm 7 mps 714 mmHg 26%
    02:00 +32°C° 0 mm 7 mps 714 mmHg 27%
    03:00 +29°C° 0 mm 7 mps 714 mmHg 28%
    04:00 +29°C° 0 mm 7 mps 714 mmHg 29%
    05:00 +29°C° 0 mm 7 mps 714 mmHg 30%
    06:00 +28°C° 0 mm 7 mps 715 mmHg 31%
    07:00 +30°C° 0 mm 7 mps 715 mmHg 29%
    08:00 +33°C° 0 mm 8 mps 715 mmHg 27%
    09:00 +35°C° 0 mm 8 mps 715 mmHg 25%
    10:00 +38°C° 0 mm 7 mps 715 mmHg 24%
    11:00 +40°C° 0 mm 7 mps 714 mmHg 22%
    12:00 +41°C° 0 mm 6 mps 714 mmHg 20%
    13:00 +40°C° 0.1 mm 6 mps 713 mmHg 22%
    14:00 +40°C° 0.1 mm 5 mps 713 mmHg 23%
    15:00 +39°C° 0.1 mm 5 mps 712 mmHg 25%
    16:00 +36°C° 2.3 mm 5 mps 712 mmHg 32%
    17:00 +34°C° 2.3 mm 6 mps 712 mmHg 40%
    18:00 +30°C° 2.3 mm 6 mps 713 mmHg 47%
    19:00 +30°C° 1 mm 6 mps 713 mmHg 47%
    20:00 +30°C° 1 mm 5 mps 714 mmHg 46%
    21:00 +30°C° 1 mm 4 mps 714 mmHg 46%
    22:00 +29°C° 0 mm 4 mps 714 mmHg 48%
    23:00 +29°C° 0 mm 5 mps 714 mmHg 50%

    Tomorrow, 26 November, Sunday

    Time Temperature Precipitation Wind Pressure Humidity
    00:00 +28°C° 0 mm 5 mps 714 mmHg 52%
    01:00 +28°C° 0 mm 4 mps 714 mmHg 55%
    02:00 +27°C° 0 mm 3 mps 714 mmHg 59%
    03:00 +27°C° 0 mm 2 mps 713 mmHg 62%
    04:00 +27°C° 0 mm 3 mps 713 mmHg 63%
    05:00 +26°C° 0 mm 4 mps 714 mmHg 65%
    06:00 +26°C° 0 mm 4 mps 714 mmHg 66%
    07:00 +28°C° 0 mm 5 mps 714 mmHg 60%
    08:00 +29°C° 0 mm 5 mps 715 mmHg 54%
    09:00 +30°C° 0 mm 6 mps 715 mmHg 49%
    10:00 +33°C° 0 mm 4 mps 715 mmHg 42%
    11:00 +34°C° 0 mm 3 mps 715 mmHg 36%
    12:00 +36°C° 0 mm 2 mps 714 mmHg 30%
    13:00 +36°C° 0 mm 2 mps 714 mmHg 27%
    14:00 +37°C° 0 mm 2 mps 713 mmHg 23%
    15:00 +38°C° 0 mm 2 mps 713 mmHg 20%
    16:00 +38°C° 0 mm 3 mps 713 mmHg 20%
    17:00 +38°C° 0 mm 4 mps 712 mmHg 20%
    18:00 +39°C° 0 mm 5 mps 712 mmHg 19%
    19:00 +37°C° 0 mm 5 mps 713 mmHg 22%
    20:00 +36°C° 0 mm 6 mps 713 mmHg 25%
    21:00 +35°C° 0 mm 6 mps 714 mmHg 28%
    22:00 +33°C° 0.7 mm 6 mps 714 mmHg 34%
    23:00 +32°C° 0.7 mm 6 mps 714 mmHg 39%

    Day after tomorrow, 27 November, Monday

    Time Temperature Precipitation Wind Pressure Humidity
    00:00 +30°C° 0.7 mm 6 mps 714 mmHg 44%
    01:00 +29°C° 1 mm 6 mps 714 mmHg 50%
    02:00 +28°C° 1 mm 7 mps 713 mmHg 56%
    03:00 +26°C° 1 mm 7 mps 713 mmHg 61%
    04:00 +27°C° 0.1 mm 6 mps 713 mmHg 60%
    05:00 +27°C° 0.1 mm 5 mps 714 mmHg 60%
    06:00 +27°C° 0.1 mm 5 mps 714 mmHg 59%
    07:00 +28°C° 0 mm 5 mps 714 mmHg 54%
    08:00 +29°C° 0 mm 6 mps 715 mmHg 50%
    09:00 +30°C° 0 mm 6 mps 715 mmHg 45%
    10:00 +32°C° 0 mm 6 mps 715 mmHg 41%
    11:00 +34°C° 0 mm 6 mps 714 mmHg 37%
    12:00 +35°C° 0 mm 6 mps 714 mmHg 34%
    13:00 +35°C° 0 mm 5 mps 713 mmHg 31%
    14:00 +36°C° 0 mm 5 mps 713 mmHg 28%
    15:00 +37°C° 0 mm 4 mps 712 mmHg 25%
    16:00 +36°C° 0 mm 4 mps 712 mmHg 25%
    17:00 +36°C° 0 mm 4 mps 712 mmHg 26%
    18:00 +36°C° 0 mm 5 mps 712 mmHg 26%
    19:00 +35°C° 0 mm 6 mps 713 mmHg 31%
    20:00 +33°C° 0 mm 7 mps 713 mmHg 35%
    21:00 +32°C° 0 mm 8 mps 713 mmHg 40%
    22:00 +31°C° 0 mm 8 mps 713 mmHg 45%
    23:00 +29°C° 0 mm 8 mps 713 mmHg 50%

    28 November, Tuesday

    Time Temperature Precipitation Wind Pressure Humidity
    00:00 +28°C° 0 mm 8 mps 713 mmHg 54%
    01:00 +28°C° 0 mm 7 mps 713 mmHg 56%
    02:00 +27°C° 0 mm 5 mps 713 mmHg 58%
    03:00 +27°C° 0 mm 4 mps 712 mmHg 60%
    04:00 +27°C° 0 mm 4 mps 713 mmHg 60%
    05:00 +27°C° 0 mm 4 mps 713 mmHg 60%
    06:00 +27°C° 0 mm 4 mps 713 mmHg 60%
    07:00 +28°C° 0 mm 5 mps 714 mmHg 56%
    08:00 +29°C° 0 mm 5 mps 714 mmHg 52%
    09:00 +30°C° 0 mm 5 mps 714 mmHg 48%
    10:00 +33°C° 0 mm 5 mps 714 mmHg 42%
    11:00 +35°C° 0 mm 5 mps 714 mmHg 35%
    12:00 +37°C° 0 mm 4 mps 713 mmHg 29%
    13:00 +38°C° 0 mm 4 mps 713 mmHg 26%
    14:00 +39°C° 0 mm 3 mps 712 mmHg 23%
    15:00 +39°C° 0 mm 3 mps 712 mmHg 20%
    16:00 +39°C° 0.1 mm 3 mps 712 mmHg 21%
    17:00 +39°C° 0.1 mm 2 mps 712 mmHg 21%
    18:00 +39°C° 0.1 mm 2 mps 712 mmHg 21%
    19:00 +38°C° 0.1 mm 3 mps 713 mmHg 23%
    20:00 +36°C° 0.1 mm 3 mps 713 mmHg 26%
    21:00 +35°C° 0.1 mm 3 mps 714 mmHg 28%
    22:00 +34°C° 0.3 mm 4 mps 714 mmHg 33%
    23:00 +33°C° 0.3 mm 5 mps 714 mmHg 39%

    29 November, Wednesday

    Time Temperature Precipitation Wind Pressure Humidity
    00:00 +30°C° 0.3 mm 7 mps 714 mmHg 45%
    01:00 +30°C° 0 mm 6 mps 714 mmHg 47%
    02:00 +29°C° 0 mm 6 mps 714 mmHg 49%
    03:00 +29°C° 0 mm 6 mps 713 mmHg 51%
    04:00 +29°C° 0 mm 6 mps 714 mmHg 52%
    05:00 +28°C° 0 mm 6 mps 714 mmHg 53%
    06:00 +28°C° 0 mm 6 mps 714 mmHg 53%
    07:00 +30°C° 0 mm 6 mps 715 mmHg 48%
    08:00 +33°C° 0 mm 6 mps 715 mmHg 43%
    09:00 +34°C° 0 mm 6 mps 715 mmHg 37%
    10:00 +36°C° 0 mm 5 mps 715 mmHg 33%
    11:00 +38°C° 0 mm 4 mps 714 mmHg 29%
    12:00 +39°C° 0 mm 3 mps 714 mmHg 25%
    13:00 +40°C° 0 mm 2 mps 713 mmHg 22%
    14:00 +40°C° 0 mm 1 mps 713 mmHg 20%
    15:00 +37°C° 0 mm 0 mps 712 mmHg 18%
    16:00 +40°C° 0 mm 1 mps 712 mmHg 18%
    17:00 +40°C° 0 mm 1 mps 713 mmHg 18%
    18:00 +40°C° 0 mm 2 mps 713 mmHg 19%
    19:00 +39°C° 0 mm 3 mps 713 mmHg 22%
    20:00 +38°C° 0 mm 4 mps 714 mmHg 25%
    21:00 +36°C° 0 mm 5 mps 714 mmHg 28%
    22:00 +35°C° 0.1 mm 5 mps 714 mmHg 33%
    23:00 +34°C° 0.1 mm 6 mps 714 mmHg 37%

    30 November, Thursday

    Time Temperature Precipitation Wind Pressure Humidity
    00:00 +33°C° 0.1 mm 7 mps 714 mmHg 41%
    01:00 +32°C° 0.3 mm 6 mps 714 mmHg 44%
    02:00 +30°C° 0.3 mm 6 mps 714 mmHg 46%
    03:00 +29°C° 0.3 mm 5 mps 714 mmHg 49%
    04:00 +29°C° 0.4 mm 5 mps 714 mmHg 50%
    05:00 +29°C° 0.4 mm 5 mps 714 mmHg 52%
    06:00 +28°C° 0.4 mm 4 mps 715 mmHg 53%
    07:00 +30°C° 0.1 mm 5 mps 715 mmHg 48%
    08:00 +32°C° 0.1 mm 5 mps 715 mmHg 44%
    09:00 +34°C° 0.1 mm 5 mps 715 mmHg 39%
    10:00 +35°C° 0 mm 5 mps 715 mmHg 36%
    11:00 +36°C° 0 mm 5 mps 714 mmHg 33%
    12:00 +39°C° 0 mm 5 mps 714 mmHg 30%
    13:00 +40°C° 0 mm 5 mps 713 mmHg 27%
    14:00 +41°C° 0 mm 5 mps 712 mmHg 25%
    15:00 +42°C° 0 mm 5 mps 711 mmHg 23%
    16:00 +42°C° 0 mm 5 mps 711 mmHg 23%
    17:00 +41°C° 0 mm 6 mps 711 mmHg 23%
    18:00 +41°C° 0 mm 6 mps 711 mmHg 23%
    19:00 +40°C° 0.1 mm 6 mps 712 mmHg 27%
    20:00 +39°C° 0.1 mm 5 mps 713 mmHg 31%
    21:00 +36°C° 0.1 mm 5 mps 713 mmHg 35%
    22:00 +34°C° 0.7 mm 7 mps 713 mmHg 45%
    23:00 +31°C° 0.7 mm 8 mps 713 mmHg 56%
    Show more